Showing default

TIANHUI 5D, 60212

Orbit data source: Space-Track

TIANHUI 5D, 60212 is a payload satellite owned by G. Cehui dili (CN) in SSO that was launched on Thu, 04 Jul 2024 UTC via a CHANG ZHENG 6A launch vehicle from the Taiyaun Space Center, China (TSC). Payload-class satellites include a variety of spacecraft equipped with specific instruments for various scientific and technological missions. These include communications satellites like Starlink; space stations such as the ISS; scientific satellites like the Hubble; Earth observation satellites from companies like Planet Labs, Umbra, and HawkEye 360; GPS; miniature CubeSats for education and research; and military/defense satellites.

Loading next visibility...
Identifier
60212, 2024-126B
Orbit
SSO
Country
Flag of CNCN / PRC
Related business
Manufacturer
DFH
Mission
Operational Civil Radar Imaging
Bus & Motor
CAST-2000?, Unknown motor
Mass
~1,000 kg wet, ~1,000 kg dry
Launch date (UTC)
2024-07-04 (2 years ago)
Launch vehicle
CHANG ZHENG 6A
Launch site
Taiyaun Space Center, China (TSC)
Object type
Payload
Rocket body
Debris
Shape & HBR
Box + 2 Pan, 7.0 m
Radar Cross Section
12.451 m², Large (>1 m²)

Expand to show TLE details & history
Last TLE update: 23 hours ago

TLE from 23 hours ago
0 TIANHUI 5D
1 60212U 24126B   26034.44475921  .00000612  00000-0  73365-4 0  9994
2 60212  97.8214  43.9141 0002092  92.2424 267.9032 14.87579915 86012
Epoch: 2026-02-03T10:40Z
TLE epoch observation values (Epoch: 2026-02-03T10:40:27.195Z)
Latitude
-0.00003°
Longitude
110.17519°
Altitude
608.588 km
Speed
7.555 km/s
True Right ascension
02h 55m 39s
True Declination
0° 00' 00"
Sunlit
Object was in daylight at epoch
Visualization orbit readout
Latitude
Unknown
Longitude
Unknown
Altitude
Unknown
Speed
Unknown
Apparent Right ascension
Unknown
Apparent Declination
Unknown
Sunlit
N/A
Visualization observer readout
Local Sidereal Time
11:47:11
Azimuth
Unknown
Elevation
Unknown
Doppler factor
Unknown
Orbital elements
Apogee altitude
603.987 km
Perigee altitude
601.067 km
Semi-major axis
6,980.664 km
Eccentricity
0.00021
Inclination
97.8214°
RAAN
43.9141°
Arg. of periapsis
92.2424°
True anomaly
267.87924°
Mean anomaly
267.9032°
Eccentric anomaly
267.89122°
Mean motion
3.72133 °/min
Orbital period
96.74 mins
BSTAR
0.000073365
Loading maneuver chart data...
Computing Atmospheric mass density...
Loading historical data...
Loading historical data...
Loading historical data...
Loading historical data...
Loading historical data...
Loading historical data...
Loading historical data...
Other satellites on launch #126 in the year 2024 (2024-07-04 UTC)

Documentation

Showing up to 5 results
|